Date,TemperatureHighF,TemperatureAvgF,TemperatureLowF,DewpointHighF,DewpointAvgF,DewpointLowF,HumidityHigh,HumidityAvg,HumidityLow,PressureMaxIn,PressureMinIn,WindSpeedMaxMPH,WindSpeedAvgMPH,GustSpeedMaxMPH,PrecipitationSumIn
2013-1-1,28,17,9,11,2,-4,81,53,31,30.67,30.53,29,6,29,0.00
2013-1-2,31,20,11,7,-1,-6,51,40,27,30.77,30.58,25,6,28,0.00
2013-1-3,40,21,7,6,-3,-9,49,36,21,30.79,30.69,10,1,12,0.00
2013-1-4,49,32,20,15,7,-2,49,36,22,30.70,30.39,12,1,13,0.00
2013-1-5,42,29,21,13,4,-5,53,35,20,30.66,30.39,29,4,36,0.00
2013-1-6,56,37,22,8,-4,-12,24,18,9,30.64,30.19,19,2,23,0.00
2013-1-7,54,41,31,10,1,-12,29,19,10,30.19,29.99,38,7,39,0.00
2013-1-8,39,35,31,17,12,-4,47,38,16,30.49,29.95,46,22,52,0.00
2013-1-9,60,43,32,21,13,5,41,30,17,30.58,30.19,25,4,31,0.00
2013-1-10,53,40,32,10,4,1,31,22,13,30.20,29.64,21,3,23,0.00
2013-1-11,40,26,11,20,2,-11,69,36,23,30.07,29.43,48,14,51,0.00
2013-1-12,18,8,-4,2,-6,-13,79,54,34,30.56,30.06,31,6,40,0.00
2013-1-13,11,2,-6,0,-5,-12,79,73,57,30.80,30.55,15,2,15,0.00
2013-1-14,15,5,-8,6,-3,-14,79,69,40,30.84,30.71,26,3,27,0.00
2013-1-15,30,23,6,12,3,-14,48,41,35,30.76,30.64,21,2,26,0.00
2013-1-16,51,35,24,20,15,9,64,43,29,30.66,30.52,15,2,18,0.00
2013-1-17,52,41,22,18,13,3,64,33,20,30.76,30.51,34,4,39,0.00
2013-1-18,48,41,37,6,4,2,25,21,16,30.51,30.25,46,23,50,0.00
2013-1-19,54,41,35,6,3,-1,26,21,13,30.47,30.27,43,17,48,0.00
2013-1-20,47,37,19,12,5,-1,61,27,16,30.47,30.30,40,11,45,0.00
2013-1-21,46,38,32,11,6,-1,31,26,18,30.47,30.32,46,22,50,0.00
2013-1-22,57,46,39,0,-4,-13,18,12,7,30.36,30.22,47,19,52,0.00
2013-1-23,59,50,44,3,-4,-16,17,11,6,30.33,30.22,35,11,46,0.00
2013-1-24,53,46,39,26,10,-2,50,25,14,30.26,30.06,47,15,51,0.00
2013-1-25,49,43,34,27,24,21,64,47,39,30.30,30.21,36,11,37,0.00
2013-1-26,54,43,33,32,24,20,90,49,32,30.25,29.89,29,6,38,0.04
2013-1-27,52,40,32,32,26,14,92,61,31,30.00,29.86,33,5,33,0.00
2013-1-28,46,33,20,27,18,12,91,58,33,29.97,29.76,23,3,24,0.00
2013-1-29,27,18,7,18,3,-6,90,54,30,30.40,29.95,27,8,28,0.07
2013-1-30,29,21,8,14,4,-6,60,49,37,30.40,30.26,46,14,61,0.00
2013-1-31,38,31,27,20,15,11,66,50,41,30.47,30.26,46,17,49,0.01
2013-2-1,39,33,29,19,15,11,55,47,40,30.47,30.31,44,16,47,0.00
2013-2-2,49,38,28,13,10,7,46,33,21,30.58,30.44,43,16,45,0.00
2013-2-3,49,42,29,10,0,-8,43,17,9,30.51,30.13,35,14,38,0.00
2013-2-4,43,37,32,12,6,2,35,28,21,30.20,30.08,49,23,51,0.00
2013-2-5,52,41,32,22,16,10,42,36,31,30.29,30.04,39,13,46,0.00
2013-2-6,46,40,29,29,20,13,89,46,34,30.29,29.99,28,7,28,0.00
2013-2-7,48,31,17,19,14,-3,86,53,26,30.46,30.27,13,2,15,0.00
2013-2-8,49,34,24,17,0,-7,51,23,15,30.37,29.97,18,2,18,0.00
2013-2-9,36,28,19,22,16,10,89,62,43,29.97,29.78,21,4,23,0.00
2013-2-10,26,22,13,19,10,5,82,61,47,30.44,29.87,21,4,23,0.00
2013-2-11,21,14,5,16,9,0,92,81,73,30.59,30.44,11,2,13,0.00
2013-2-12,40,25,10,7,0,-7,74,36,18,30.59,30.42,33,6,38,0.03
2013-2-13,39,30,23,15,9,5,49,41,31,30.43,30.24,51,18,51,0.00
2013-2-14,34,24,11,19,12,8,92,63,39,30.66,30.28,30,7,37,0.01
2013-2-15,34,22,9,20,10,5,92,63,30,30.79,30.65,38,5,38,0.11
2013-2-16,48,36,27,16,11,7,51,36,24,30.67,30.23,49,21,52,0.00
2013-2-17,55,41,27,12,4,-1,50,22,11,30.24,29.77,44,12,46,0.00
2013-2-18,31,25,12,11,3,-2,58,39,24,30.47,29.90,32,9,38,0.00
2013-2-19,44,25,11,13,4,-1,61,44,17,30.48,30.16,12,2,13,0.00
2013-2-20,36,24,14,20,10,5,92,56,36,30.16,29.94,13,2,17,0.00
2013-2-21,25,17,10,19,13,6,89,83,71,30.34,30.03,10,1,11,0.18
2013-2-22,32,21,10,21,12,0,92,67,41,30.39,30.24,42,5,47,0.04
2013-2-23,39,27,20,20,11,2,80,49,37,30.25,29.98,46,14,50,0.02
2013-2-24,22,21,8,20,17,4,92,85,81,30.53,30.03,11,1,13,0.00
2013-2-25,39,22,6,21,11,2,86,64,37,30.56,30.22,10,2,14,0.33
2013-2-26,30,23,14,22,15,6,86,73,50,30.54,30.14,12,1,14,0.07
2013-2-27,30,20,10,10,4,-4,76,52,33,30.70,30.54,29,7,31,0.07
2013-2-28,33,25,18,12,6,-1,54,43,34,30.73,30.58,37,12,37,0.00
2013-3-1,43,34,25,22,14,5,54,43,35,30.67,30.59,34,8,35,0.03
2013-3-2,51,42,36,25,21,18,54,44,31,30.60,30.23,34,16,41,0.00
2013-3-3,58,45,38,26,20,15,63,37,25,30.23,29.73,51,18,59,0.00
2013-3-4,40,25,14,26,16,1,89,68,43,30.54,29.82,33,8,39,0.07
2013-3-5,42,30,16,20,8,-6,71,40,18,30.66,30.48,39,8,39,0.02
2013-3-6,59,47,32,24,12,-1,48,25,14,30.48,29.98,35,7,37,0.00
2013-3-7,60,47,34,24,17,11,50,30,18,30.11,29.96,25,4,27,0.00
2013-3-8,46,36,29,29,20,11,88,54,40,30.10,29.91,13,2,16,0.00
2013-3-9,30,28,14,28,24,8,92,86,65,30.45,29.87,10,1,13,0.05
2013-3-10,44,27,10,26,14,3,79,60,38,30.57,30.43,40,2,46,0.32
2013-3-11,43,35,24,26,20,12,90,56,41,30.44,30.14,47,18,57,0.00
2013-3-12,40,25,19,30,21,17,99,85,51,30.65,30.41,32,4,39,0.23
2013-3-13,55,46,37,28,22,18,56,39,26,30.64,30.42,47,15,47,0.00
2013-3-14,65,52,44,27,20,16,38,29,17,30.45,30.25,33,11,37,0.00
2013-3-15,66,56,46,27,22,19,40,28,19,30.25,29.93,34,13,40,0.00
2013-3-16,50,41,33,36,28,21,80,60,40,30.05,29.93,29,3,30,0.01
2013-3-17,47,37,26,28,20,4,71,52,27,30.04,29.74,44,10,48,0.00
2013-3-18,40,30,21,15,8,0,54,39,27,30.29,30.04,39,16,44,0.00
2013-3-19,46,35,20,10,-1,-8,65,23,10,30.61,30.22,42,17,46,0.00
2013-3-20,54,34,15,23,12,1,77,45,19,30.59,30.01,31,4,41,0.00
2013-3-21,51,38,28,34,15,5,88,40,28,30.02,29.68,42,12,45,0.00
2013-3-22,38,26,17,23,14,6,92,60,37,30.27,29.99,18,3,21,0.01
2013-3-23,19,15,6,16,10,2,92,82,72,30.69,30.24,9,2,13,0.00
2013-3-24,26,16,3,14,5,-3,81,64,34,30.75,30.62,23,4,23,0.01
2013-3-25,30,16,3,16,6,-2,92,66,42,30.81,30.72,16,3,17,0.02
2013-3-26,54,34,13,27,16,4,69,49,29,30.73,30.27,33,8,36,0.05
2013-3-27,52,38,27,35,26,19,83,65,35,30.36,30.25,22,3,30,0.00
2013-3-28,56,43,32,33,26,19,72,51,36,30.36,30.28,16,2,19,0.00
2013-3-29,58,45,34,34,27,24,68,50,31,30.34,30.24,32,6,32,0.00
2013-3-30,56,46,34,33,26,21,92,47,30,30.38,30.17,34,8,36,0.00
2013-3-31,61,46,29,32,21,14,92,45,17,30.36,30.17,34,10,39,0.00
2013-4-1,51,36,26,34,26,20,92,68,46,30.36,30.21,12,2,15,0.04
2013-4-2,35,32,30,34,30,28,100,94,92,30.44,30.31,6,1,9,0.14
2013-4-3,56,40,26,45,32,24,100,77,35,30.47,30.34,22,2,25,0.33
2013-4-4,62,53,39,28,25,20,61,34,20,30.39,30.13,22,8,26,0.00
2013-4-5,63,53,40,35,24,18,81,33,22,30.13,29.79,31,8,33,0.05
2013-4-6,55,45,38,28,22,17,57,40,25,30.09,29.90,33,12,36,0.00
2013-4-7,54,44,35,32,24,19,80,46,30,30.04,29.83,38,15,43,0.00
2013-4-8,57,44,25,32,27,21,90,53,33,29.92,29.58,34,5,34,0.03
2013-4-9,25,14,6,22,11,2,92,85,74,30.65,29.89,12,3,13,0.02
2013-4-10,26,13,0,19,8,-5,93,79,57,30.70,30.42,27,2,27,0.01
2013-4-11,44,35,22,34,24,12,91,64,50,30.42,30.13,33,8,41,0.12
2013-4-12,52,38,29,32,28,19,92,70,28,30.23,30.11,35,6,38,0.00
2013-4-13,56,44,28,32,20,12,90,44,22,30.18,29.60,40,8,51,0.02
2013-4-14,36,31,25,32,15,3,92,54,27,30.04,29.60,40,14,41,0.00
2013-4-15,31,23,16,22,18,10,92,80,44,30.41,30.02,23,2,31,0.00
2013-4-16,30,22,15,24,18,12,92,87,78,30.42,30.29,11,1,12,0.00
2013-4-17,28,21,10,23,18,6,92,87,78,30.58,30.29,12,2,15,0.00
2013-4-18,30,18,6,19,8,0,87,67,41,30.70,30.54,36,5,36,0.00
2013-4-19,39,31,23,23,15,8,61,51,43,30.64,30.29,42,20,47,0.01
2013-4-20,47,40,34,34,26,20,73,57,44,30.30,30.16,30,7,35,0.00
2013-4-21,52,41,34,29,23,19,70,48,29,30.31,30.18,33,12,37,0.00
2013-4-22,43,30,16,32,24,13,89,77,51,30.58,30.09,29,6,32,0.00
2013-4-23,31,20,13,20,14,10,92,77,57,30.70,30.52,12,3,12,0.00
2013-4-24,45,31,17,19,13,9,75,51,28,30.66,30.56,30,8,32,0.01
2013-4-25,60,41,26,34,18,9,60,40,21,30.56,30.19,20,4,22,0.00
2013-4-26,61,47,34,27,22,17,59,38,21,30.45,30.26,18,3,21,0.00
2013-4-27,66,53,39,25,18,14,47,27,17,30.42,30.17,26,9,27,0.00
2013-4-28,69,58,49,29,23,17,39,25,20,30.17,29.90,40,14,43,0.00
2013-4-29,69,57,42,33,28,21,64,36,19,29.98,29.66,37,8,40,0.00
2013-4-30,58,47,32,37,31,22,90,58,26,30.10,29.64,19,4,21,0.17
2013-5-1,32,26,16,30,23,14,99,88,78,31.00,30.10,12,2,13,0.04
2013-5-2,39,26,13,26,17,8,89,71,45,31.17,30.88,11,2,11,0.57
2013-5-3,54,40,23,34,24,15,86,55,36,30.88,30.40,13,2,14,0.01
2013-5-4,52,40,31,35,27,22,77,60,43,30.48,30.32,15,3,16,0.00
2013-5-5,50,40,30,35,26,20,87,60,41,30.47,30.32,14,3,16,0.05
2013-5-6,59,46,35,40,34,30,86,65,39,30.36,30.10,14,3,16,0.00
2013-5-7,64,51,40,41,34,29,90,53,32,30.13,30.00,32,8,32,0.55
2013-5-8,49,42,37,41,36,31,92,81,63,30.34,30.07,17,2,22,1.34
2013-5-9,52,42,36,43,38,32,94,84,62,30.43,30.31,19,2,21,0.24
2013-5-10,60,45,34,46,35,30,86,70,38,30.54,30.41,18,2,21,0.01
2013-5-11,59,48,36,47,37,30,83,67,39,30.58,30.39,17,3,22,0.11
2013-5-12,71,59,45,42,35,30,63,42,28,30.44,30.17,24,4,30,0.00
2013-5-13,79,67,57,43,36,30,44,32,18,30.18,30.00,30,8,32,0.00
2013-5-14,80,66,56,44,36,32,53,34,20,30.00,29.87,26,9,30,0.06
2013-5-15,74,61,49,44,37,32,77,42,25,29.97,29.87,22,4,24,0.00
2013-5-16,73,60,48,41,36,32,77,42,23,29.94,29.84,35,9,43,0.00
2013-5-17,81,64,47,43,34,20,61,35,15,29.91,29.73,32,4,33,0.00
2013-5-18,67,58,48,38,28,19,50,32,20,29.87,29.74,40,9,49,0.00
2013-5-19,60,51,44,32,30,25,55,43,28,29.96,29.83,41,16,41,0.00
2013-5-20,57,49,40,42,36,27,89,60,38,30.14,29.93,22,5,26,0.01
2013-5-21,63,50,37,36,27,21,61,43,25,30.18,30.02,21,5,28,0.00
2013-5-22,70,53,38,45,34,28,91,51,31,30.15,29.99,18,4,18,0.24
2013-5-23,61,50,43,50,45,41,96,84,62,30.15,30.05,12,3,17,0.00
2013-5-24,79,60,43,46,37,24,92,49,18,30.13,29.98,19,4,23,0.01
2013-5-25,80,63,44,46,37,23,82,42,17,30.02,29.87,15,3,20,0.00
2013-5-26,80,64,53,39,28,21,40,26,15,29.91,29.82,26,4,31,0.00
2013-5-27,74,64,50,30,23,14,42,21,13,29.85,29.70,30,8,30,0.00
2013-5-28,73,58,44,45,34,25,56,41,21,29.81,29.61,21,4,24,0.00
2013-5-29,58,48,40,46,36,28,90,64,36,29.83,29.63,42,9,42,0.17
2013-5-30,60,52,44,29,25,20,54,37,24,29.98,29.72,56,15,65,0.00
2013-5-31,60,52,42,25,20,14,45,30,18,30.14,29.94,45,14,50,0.00
2013-6-1,65,53,44,40,31,19,63,43,29,30.32,30.13,22,6,26,0.00
2013-6-2,76,65,36,42,35,26,69,35,22,30.31,29.90,18,6,21,0.00
2013-6-3,79,66,52,36,29,23,38,25,15,29.91,29.70,38,8,45,0.00
2013-6-4,68,56,45,50,39,24,89,56,28,30.24,29.86,18,3,22,0.09
2013-6-5,58,45,41,49,42,38,98,89,66,30.35,30.22,12,3,12,0.05
2013-6-6,73,56,40,44,39,33,95,55,29,30.33,30.15,16,3,17,0.01
2013-6-7,76,59,45,51,41,34,69,52,34,30.20,29.85,20,3,22,0.01
2013-6-8,72,63,49,51,42,34,70,47,36,30.04,29.73,29,6,33,0.00
2013-6-9,84,66,45,45,38,32,73,41,21,30.09,29.93,18,5,23,0.00
2013-6-10,89,76,62,39,34,29,35,22,12,29.95,29.72,29,10,33,0.00
2013-6-11,87,75,61,36,28,17,30,18,8,29.82,29.66,40,10,41,0.00
2013-6-12,85,72,56,47,32,22,55,24,18,30.02,29.82,19,5,21,0.00
2013-6-13,83,65,50,56,48,37,85,57,24,30.00,29.85,27,3,27,0.00
2013-6-14,84,70,57,45,36,23,57,30,14,29.93,29.81,24,6,30,0.00
2013-6-15,76,62,46,50,45,40,80,54,36,30.08,29.88,19,3,22,0.00
2013-6-16,73,65,51,46,38,32,70,39,22,30.17,30.03,33,8,33,0.01
2013-6-17,76,61,49,56,43,32,82,51,35,30.17,30.06,15,3,17,0.15
2013-6-18,78,61,46,56,46,40,85,60,32,30.14,29.91,16,3,18,0.01
2013-6-19,90,68,47,49,39,16,84,44,10,30.00,29.67,31,5,33,0.00
2013-6-20,83,69,56,39,28,16,37,21,16,29.85,29.72,18,5,21,0.00
2013-6-21,87,69,52,52,36,22,57,33,12,29.85,29.73,20,4,22,0.00
2013-6-22,79,64,49,50,40,25,66,44,16,29.90,29.72,26,5,32,0.00
2013-6-23,79,62,48,49,39,26,72,43,25,29.99,29.82,22,5,27,0.00
2013-6-24,83,67,49,46,36,22,67,37,14,29.92,29.74,30,4,33,0.00
2013-6-25,80,70,58,40,32,26,31,25,21,29.96,29.76,31,11,35,0.00
2013-6-26,93,75,58,43,36,32,40,25,14,30.02,29.91,24,5,28,0.00
2013-6-27,93,78,65,45,39,33,41,25,18,30.10,29.97,18,5,20,0.00
2013-6-28,87,72,57,60,47,36,84,43,30,30.15,29.99,18,4,24,0.15
2013-6-29,77,64,54,58,52,46,86,65,37,30.17,30.09,15,2,17,0.02
2013-6-30,75,63,56,59,52,48,90,68,42,30.20,30.10,13,3,16,0.07
2013-7-1,76,62,51,54,50,43,83,66,44,30.31,30.19,18,3,18,0.02
2013-7-2,79,63,49,52,46,41,84,56,35,30.28,30.13,16,4,19,0.00
2013-7-3,84,66,50,49,44,38,70,48,28,30.15,29.90,20,4,25,0.00
2013-7-4,83,70,59,52,44,39,53,40,28,29.96,29.85,20,5,21,0.00
2013-7-5,81,66,57,58,49,42,82,56,32,29.87,29.78,25,4,25,0.15
2013-7-6,82,70,56,50,47,43,78,46,27,29.94,29.82,42,9,50,0.06
2013-7-7,84,70,58,56,49,43,74,49,32,29.98,29.89,36,6,40,0.12
2013-7-8,86,77,63,49,43,38,51,30,20,30.01,29.92,36,11,44,0.00
2013-7-9,88,75,63,46,40,35,43,29,17,30.10,30.00,19,4,22,0.00
2013-7-10,90,71,56,56,47,39,60,43,23,30.11,29.93,16,3,19,0.00
2013-7-11,94,76,60,54,47,40,56,38,18,30.01,29.73,29,6,33,0.00
2013-7-12,86,69,60,58,50,44,89,54,30,29.98,29.75,30,6,31,0.33
2013-7-13,84,66,58,61,54,49,85,67,35,30.14,29.98,22,3,24,0.03
2013-7-14,72,63,55,59,53,48,90,71,53,30.20,30.08,15,2,17,0.29
2013-7-15,73,62,54,64,57,50,96,85,68,30.18,30.08,16,2,18,0.43
2013-7-16,80,64,49,55,49,43,92,64,29,30.20,30.13,20,3,20,0.01
2013-7-17,85,67,52,57,50,44,77,56,32,30.20,30.05,15,3,16,0.00
2013-7-18,87,71,61,57,52,47,86,52,31,30.09,29.94,22,6,27,0.09
2013-7-19,78,67,57,58,53,48,83,62,42,30.14,30.01,17,3,20,0.00
2013-7-20,84,68,54,58,49,43,73,53,32,30.04,29.89,17,3,20,0.00
2013-7-21,85,71,56,58,47,32,73,45,19,29.93,29.83,17,4,19,0.00
2013-7-22,89,78,65,55,36,22,49,24,10,29.89,29.79,23,7,25,0.00
2013-7-23,86,74,62,55,38,22,71,29,11,30.03,29.82,16,4,18,0.00
2013-7-24,78,65,56,58,52,43,80,63,43,30.15,29.98,21,4,25,0.03
2013-7-25,74,61,53,58,50,46,95,69,38,30.28,30.01,20,3,22,0.95
2013-7-26,82,64,51,55,48,42,83,60,28,30.31,30.15,14,2,16,0.00
2013-7-27,77,64,54,56,48,37,94,56,32,30.16,29.97,21,3,24,0.11
2013-7-28,68,57,52,60,55,51,96,91,69,30.03,29.93,11,2,12,0.09
2013-7-29,71,61,54,59,52,46,92,72,55,30.21,29.97,19,2,21,1.12
2013-7-30,79,66,55,57,48,41,77,54,30,30.26,30.17,33,6,33,0.00
2013-7-31,82,68,55,55,48,43,75,50,28,30.27,30.11,16,3,16,0.00
2013-8-1,84,69,56,55,46,41,73,47,22,30.17,29.92,16,3,18,0.00
2013-8-2,90,74,61,50,45,39,59,37,18,29.93,29.86,33,11,40,0.00
2013-8-3,85,67,56,66,51,42,92,58,31,30.22,29.92,25,3,29,0.77
2013-8-4,81,68,57,56,47,42,71,48,29,30.17,30.01,21,6,22,0.00
2013-8-5,79,67,58,56,47,41,86,51,28,30.04,29.94,22,4,26,0.44
2013-8-6,82,69,62,54,45,37,56,42,29,30.01,29.94,27,7,30,0.00
2013-8-7,72,61,53,52,47,37,78,59,40,30.05,29.98,12,2,14,0.00
2013-8-8,74,63,50,56,49,39,75,60,45,30.23,30.03,15,4,16,0.00
2013-8-9,70,59,51,50,45,39,73,61,45,30.27,30.16,19,3,20,0.00
2013-8-10,81,64,50,59,44,39,74,51,28,30.27,30.13,17,3,18,0.02
2013-8-11,72,67,56,53,46,39,71,48,35,30.18,30.09,15,3,24,0.03
2013-8-12,75,61,52,53,46,40,87,60,34,30.29,30.14,20,3,23,0.18
2013-8-13,69,59,52,54,47,42,86,66,45,30.29,30.17,21,4,23,0.37
2013-8-14,73,60,48,57,46,40,82,61,37,30.29,30.14,17,2,17,0.15
2013-8-15,78,65,53,54,41,33,63,42,28,30.22,30.10,20,4,20,0.02
2013-8-16,85,68,53,47,41,32,61,38,21,30.18,30.08,16,3,16,0.00
2013-8-17,88,77,58,45,38,30,53,26,15,30.14,29.95,18,4,20,0.00
2013-8-18,84,72,62,48,41,33,44,32,20,30.05,29.94,18,5,19,0.00
2013-8-19,90,74,59,49,42,38,47,32,20,30.03,29.92,20,4,29,0.00
2013-8-20,90,76,64,44,40,34,40,28,16,29.95,29.85,20,4,24,0.75
2013-8-21,82,71,62,61,45,40,63,40,29,30.06,29.90,16,4,20,0.01
2013-8-22,77,63,54,58,50,46,77,65,46,30.19,30.06,16,2,18,0.01
2013-8-23,80,68,56,54,49,44,78,50,36,30.18,29.93,32,6,37,0.05
2013-8-24,81,65,54,60,49,44,82,58,32,30.12,29.95,20,3,25,0.25
2013-8-25,82,67,56,58,49,43,79,54,29,30.13,30.05,29,4,29,0.03
2013-8-26,82,67,57,59,52,48,87,59,36,30.14,30.04,28,5,33,0.35
2013-8-27,84,69,58,59,52,48,87,57,32,30.12,30.00,15,2,17,0.01
2013-8-28,85,70,58,55,50,42,69,49,32,30.07,29.98,28,2,31,0.00
2013-8-29,88,77,62,52,47,42,57,36,25,30.10,30.03,26,6,33,0.00
2013-8-30,86,72,64,53,48,42,55,43,27,30.10,29.98,28,5,28,0.00
2013-8-31,85,68,59,53,47,42,67,47,28,30.07,29.94,25,4,27,0.02
2013-9-1,74,66,55,57,54,44,82,66,52,30.15,30.07,12,3,15,0.00
2013-9-2,86,76,56,56,50,44,80,43,30,30.13,29.97,17,4,18,0.00
2013-9-3,89,75,63,54,48,44,53,40,27,30.02,29.93,24,5,24,0.00
2013-9-4,88,72,62,52,48,45,56,44,27,30.11,29.99,23,2,25,0.00
2013-9-5,88,71,59,53,47,43,58,44,26,30.13,30.06,15,2,17,0.00
2013-9-6,88,74,62,52,45,40,53,37,25,30.07,29.95,33,5,33,0.00
2013-9-7,87,78,59,51,47,40,55,34,26,30.03,29.92,18,4,20,0.00
2013-9-8,84,66,58,54,47,39,63,50,29,29.96,29.81,20,3,28,0.02
2013-9-9,77,62,53,56,50,44,94,67,40,30.04,29.86,22,3,25,1.07
2013-9-10,59,55,52,57,53,51,97,95,89,30.27,30.01,10,2,10,0.69
2013-9-11,57,55,54,57,54,52,100,97,95,30.30,30.23,12,1,14,4.01
2013-9-12,57,54,51,56,54,50,100,97,96,30.35,30.26,19,4,30,7.76
2013-9-13,69,58,52,62,55,50,100,92,68,30.27,29.94,10,1,12,0.21
2013-9-14,70,57,49,57,51,46,93,81,48,30.10,29.95,23,2,25,0.07
2013-9-15,55,52,49,53,50,48,100,95,92,30.37,30.08,10,1,14,1.77
2013-9-16,67,55,48,60,52,45,98,90,68,30.35,30.12,13,2,13,0.05
2013-9-17,74,64,55,53,45,41,71,50,30,30.17,29.83,24,5,26,0.00
2013-9-18,75,62,55,50,42,39,65,50,29,29.94,29.78,52,8,52,0.02
2013-9-19,61,52,43,48,42,38,87,70,49,30.29,29.90,15,3,16,0.07
2013-9-20,68,52,39,49,42,36,92,70,40,30.34,30.17,15,2,15,0.00
2013-9-21,76,62,47,50,40,31,75,44,28,30.17,29.83,16,3,20,0.00
2013-9-22,69,58,48,52,41,34,87,56,37,29.83,29.59,40,4,46,0.08
2013-9-23,55,49,44,44,35,29,92,59,41,30.20,29.56,40,15,51,0.29
2013-9-24,72,58,47,46,34,25,57,42,31,30.25,29.91,38,7,42,0.00
2013-9-25,78,62,48,46,30,17,45,30,17,29.91,29.48,21,5,21,0.00
2013-9-26,64,54,44,46,39,28,84,58,38,29.82,29.56,16,3,16,0.00
2013-9-27,46,43,36,44,40,23,97,91,56,30.21,29.78,32,3,40,0.32
2013-9-28,60,46,36,33,24,17,61,43,30,30.39,30.19,42,18,46,0.00
2013-9-29,70,56,43,36,25,18,50,31,20,30.33,29.98,33,8,39,0.00
2013-9-30,74,63,53,39,30,23,41,30,20,30.00,29.80,33,7,39,0.00
2013-10-1,68,58,48,46,36,25,72,43,27,30.06,29.91,21,4,25,0.00
2013-10-2,72,59,44,43,34,26,74,41,26,30.04,29.92,15,3,21,0.00
2013-10-3,59,47,36,44,39,32,94,75,54,29.94,29.82,15,3,18,0.14
2013-10-4,42,34,32,41,32,29,98,92,88,30.26,29.89,16,4,18,0.57
2013-10-5,52,38,26,28,18,6,70,45,23,30.56,30.43,35,10,40,0.01
2013-10-6,66,51,39,38,28,8,56,40,24,30.52,30.34,17,3,24,0.00
2013-10-7,74,60,47,42,28,15,51,31,12,30.34,29.96,27,3,29,0.00
2013-10-8,73,60,48,39,28,18,53,29,19,29.96,29.76,26,4,35,0.00
2013-10-9,60,51,42,44,34,26,83,54,34,30.06,29.82,17,3,20,0.00
2013-10-10,54,45,38,44,38,26,91,76,48,30.05,29.65,40,6,45,0.06
2013-10-11,51,45,39,31,27,25,72,50,39,30.23,29.59,72,18,72,0.00
2013-10-12,55,42,35,39,35,31,93,78,50,30.37,30.23,13,2,16,0.00
2013-10-13,61,45,33,44,36,28,86,71,49,30.37,30.06,16,2,20,0.00
2013-10-14,47,41,33,35,32,26,87,69,48,30.36,29.93,34,8,39,0.07
2013-10-15,34,30,27,30,26,23,89,84,74,30.57,30.35,10,3,13,0.02
2013-10-16,50,36,24,30,22,16,92,59,32,30.54,30.33,29,6,30,0.01
2013-10-17,43,37,30,31,24,16,92,61,39,30.34,30.23,32,8,40,0.00
2013-10-18,43,32,26,34,26,14,93,78,43,30.49,30.29,32,4,32,0.32
2013-10-19,54,44,35,25,20,16,49,37,27,30.46,30.07,44,19,51,0.00
2013-10-20,47,39,27,34,26,19,93,61,34,30.36,30.06,36,8,41,0.01
2013-10-21,50,37,25,31,25,20,90,64,37,30.53,30.36,29,6,31,0.22
2013-10-22,61,50,41,35,28,22,57,43,34,30.47,30.25,27,7,29,0.00
2013-10-23,61,51,37,37,28,21,72,42,34,30.35,30.22,21,5,23,0.00
2013-10-24,61,44,34,40,32,26,81,64,30,30.45,30.34,12,2,13,0.00
2013-10-25,65,50,37,36,28,21,65,44,27,30.43,30.26,13,2,15,0.00
2013-10-26,61,45,33,36,29,22,72,55,37,30.50,30.35,13,2,18,0.00
2013-10-27,62,53,41,27,23,19,46,31,23,30.35,29.97,36,14,40,0.00
2013-10-28,44,33,26,30,26,22,94,77,42,30.29,29.98,8,2,10,0.00
2013-10-29,33,29,25,32,27,24,95,93,90,30.35,30.21,9,1,10,0.01
2013-10-30,45,35,26,32,24,15,96,68,38,30.24,30.11,36,8,40,0.15
2013-10-31,42,36,32,23,18,14,62,48,36,30.18,30.03,51,24,53,0.00
2013-11-1,46,38,33,31,22,17,75,55,33,30.49,30.18,33,6,33,0.00
2013-11-2,66,49,33,20,13,4,55,26,10,30.49,29.88,30,9,35,0.00
2013-11-3,60,51,32,26,16,0,62,25,11,29.89,29.62,39,10,42,0.00
2013-11-4,37,29,22,23,17,10,98,60,39,30.27,29.85,31,5,38,0.00
2013-11-5,35,28,22,20,10,0,83,51,27,30.53,30.23,40,10,44,0.00
2013-11-6,40,33,25,18,12,2,47,41,35,30.68,30.45,47,23,55,0.00
2013-11-7,60,43,35,28,21,17,54,42,25,30.70,30.20,40,12,40,0.00
2013-11-8,56,50,43,23,18,12,37,28,22,30.20,29.89,53,17,67,0.00
2013-11-9,58,47,34,31,23,18,67,38,25,30.38,30.14,33,9,36,0.00
2013-11-10,62,51,35,24,20,16,60,30,21,30.41,30.31,29,11,31,0.00
2013-11-11,61,45,26,32,23,18,92,46,20,30.78,30.30,29,7,33,0.00
2013-11-12,57,42,26,31,26,10,93,56,30,30.86,30.64,12,3,15,0.00
2013-11-13,61,50,38,19,14,8,33,23,16,30.65,30.15,32,12,39,0.00
2013-11-14,55,45,38,33,21,10,56,39,21,30.17,29.91,29,8,32,0.00
2013-11-15,55,44,32,28,16,4,76,34,20,29.91,29.61,40,14,51,0.00
2013-11-16,49,38,30,29,19,8,92,48,28,29.75,29.41,53,14,60,0.00
2013-11-17,51,41,29,21,16,10,71,38,20,30.34,29.72,67,17,74,0.00
2013-11-18,55,44,34,20,13,7,48,30,16,30.37,30.23,44,15,46,0.00
2013-11-19,55,45,38,30,18,7,67,35,21,30.24,29.89,53,12,57,0.00
2013-11-20,53,43,30,30,23,20,73,47,29,30.16,29.93,46,10,46,0.00
2013-11-21,29,13,6,22,9,2,92,82,72,31.09,30.16,9,3,13,0.00
2013-11-22,35,23,13,25,16,-2,86,74,36,31.16,31.00,6,0,8,0.12
2013-11-23,31,23,18,24,18,12,92,81,63,31.02,30.73,10,2,12,0.09
2013-11-24,38,30,19,31,25,13,99,82,41,30.73,30.33,10,1,10,0.07
2013-11-25,36,31,25,25,19,11,73,62,37,30.65,30.39,14,1,17,0.01
2013-11-26,46,32,22,24,18,14,80,59,34,30.80,30.59,12,2,16,0.00
2013-11-27,56,44,30,21,16,13,53,33,23,30.59,30.31,26,8,27,0.00
2013-11-28,46,35,28,28,21,15,67,55,36,30.44,30.34,10,2,12,0.00
2013-11-29,50,45,38,20,17,14,42,33,27,30.41,30.29,42,17,47,0.00
2013-11-30,50,42,36,17,15,12,42,33,23,30.40,30.31,34,17,41,0.00
2013-12-1,44,39,35,24,18,13,55,43,36,30.37,30.06,46,17,52,0.00
2013-12-2,48,42,38,24,22,19,54,45,35,30.09,29.68,57,28,68,0.00
2013-12-3,43,32,5,29,19,0,92,60,38,29.96,29.63,44,11,52,0.00
2013-12-4,7,2,-6,1,-3,-11,92,78,70,30.70,29.95,13,3,13,0.00
2013-12-5,6,-3,-11,0,-9,-16,83,75,62,30.84,30.67,10,2,11,0.06
2013-12-6,7,-3,-9,-1,-9,-14,92,77,66,30.96,30.81,11,2,11,0.00
2013-12-7,13,2,-5,5,-3,-10,92,78,67,30.93,30.40,14,2,14,0.00
2013-12-8,20,11,-4,12,2,-8,88,69,43,30.56,30.28,34,5,39,0.00
2013-12-9,14,7,-5,-1,-7,-11,84,55,36,30.76,30.53,67,21,68,0.00
2013-12-10,31,25,14,12,7,-2,72,46,39,30.73,30.36,62,27,68,0.00
2013-12-11,43,28,11,13,7,-3,81,45,15,30.71,30.62,44,16,50,0.00
2013-12-12,55,44,33,11,5,-3,27,19,15,30.65,30.08,43,13,46,0.03
2013-12-13,47,38,26,17,11,4,59,34,22,30.37,29.96,40,10,42,0.00
2013-12-14,40,30,19,13,9,6,60,43,28,30.58,30.37,52,9,62,0.00
2013-12-15,46,38,30,18,15,12,51,39,28,30.52,30.30,56,27,67,0.00
2013-12-16,50,44,40,19,15,7,40,31,23,30.44,30.27,56,27,64,0.00
2013-12-17,53,46,37,16,13,9,32,27,22,30.52,30.21,43,16,46,0.00
2013-12-18,61,50,42,17,12,9,33,21,15,30.21,29.82,40,17,45,0.00
2013-12-19,54,39,13,22,18,10,89,46,23,29.98,29.63,29,6,34,0.00
2013-12-20,42,22,11,29,14,8,94,75,37,30.12,29.97,29,3,33,0.00
2013-12-21,33,24,16,20,12,6,88,63,37,30.27,29.90,22,4,25,0.00
2013-12-22,29,22,12,14,10,6,89,63,44,30.62,30.27,41,11,45,0.00
2013-12-23,38,25,10,20,14,7,90,65,43,30.69,30.46,51,14,54,0.00
2013-12-24,40,33,22,29,18,3,83,53,37,30.57,30.29,62,22,69,0.02
2013-12-25,43,31,23,12,6,0,47,34,25,30.74,30.55,44,8,51,0.00
2013-12-26,50,38,33,14,7,0,39,27,21,30.59,30.50,46,14,48,0.00
2013-12-27,58,44,35,23,18,12,46,35,23,30.52,30.22,15,4,21,0.00
2013-12-28,50,40,16,21,19,12,92,44,30,30.37,30.02,36,12,38,0.00
2013-12-29,34,24,14,21,12,3,88,65,31,30.55,30.28,46,8,60,0.07
2013-12-30,37,31,24,14,11,5,53,42,33,30.56,30.35,49,18,51,0.00
2013-12-31,46,38,33,22,18,12,51,43,37,30.42,30.14,59,20,60,0.00
2014-1-1,36,30,17,26,18,6,92,62,31,30.56,30.10,38,8,43,0.00
2014-1-2,45,36,27,14,8,2,51,31,18,30.59,30.25,44,22,46,0.00